Time,TemperatureF,DewpointF,PressureIn,WindDirection,WindDirectionDegrees,WindSpeedMPH,WindSpeedGustMPH,Humidity,HourlyPrecipIn,Conditions,Clouds,dailyrainin,SoftwareType,DateUTC
2013-10-03 00:00:00,59.7,51.4,29.71,NNW,337,0.0,0.0,74,0.00,,,0.00,WUHU21623XXSP,2013-10-03 04:00:00,
2013-10-03 00:01:00,59.7,51.4,29.71,NNW,337,0.0,0.0,74,0.00,,,0.00,WUHU21623XXSP,2013-10-03 04:01:00,
2013-10-03 00:06:00,59.4,51.4,29.72,NNW,337,0.0,0.0,75,0.00,,,0.00,WUHU21623XXSP,2013-10-03 04:06:00,
2013-10-03 00:11:00,58.8,50.9,29.72,NNW,337,0.0,0.0,75,0.00,,,0.00,WUHU21623XXSP,2013-10-03 04:11:00,
2013-10-03 00:16:00,58.8,50.9,29.72,NNW,337,0.0,0.0,75,0.00,,,0.00,WUHU21623XXSP,2013-10-03 04:16:00,
2013-10-03 00:21:00,58.8,50.9,29.72,NNW,337,0.0,0.0,75,0.00,,,0.00,WUHU21623XXSP,2013-10-03 04:21:00,
2013-10-03 00:26:00,58.6,50.7,29.72,NNW,337,0.0,0.0,75,0.00,,,0.00,WUHU21623XXSP,2013-10-03 04:26:00,
2013-10-03 00:31:00,58.3,50.7,29.72,NNW,337,0.0,0.0,76,0.00,,,0.00,WUHU21623XXSP,2013-10-03 04:31:00,
2013-10-03 00:36:00,57.9,50.4,29.72,NNW,337,0.0,0.0,76,0.00,,,0.00,WUHU21623XXSP,2013-10-03 04:36:00,
2013-10-03 00:41:00,57.7,50.5,29.72,NNW,337,0.0,0.0,77,0.00,,,0.00,WUHU21623XXSP,2013-10-03 04:41:00,
2013-10-03 00:46:00,57.6,50.0,29.73,NNW,337,0.0,0.0,76,0.00,,,0.00,WUHU21623XXSP,2013-10-03 04:46:00,
2013-10-03 00:51:00,57.4,50.2,29.73,NNW,337,0.0,0.0,77,0.00,,,0.00,WUHU21623XXSP,2013-10-03 04:51:00,
2013-10-03 00:56:00,57.2,50.2,29.73,NNW,337,0.0,0.0,77,0.00,,,0.00,WUHU21623XXSP,2013-10-03 04:56:00,
2013-10-03 01:01:00,57.0,49.8,29.73,NNW,337,0.0,0.0,77,0.00,,,0.00,WUHU21623XXSP,2013-10-03 05:01:00,
2013-10-03 01:06:00,57.0,49.8,29.73,NNW,337,0.0,0.0,77,0.00,,,0.00,WUHU21623XXSP,2013-10-03 05:06:00,
2013-10-03 01:11:00,56.8,49.6,29.73,NNW,337,0.0,0.0,78,0.00,,,0.00,WUHU21623XXSP,2013-10-03 05:11:00,
2013-10-03 01:16:00,56.8,50.0,29.73,NNW,337,0.0,0.0,78,0.00,,,0.00,WUHU21623XXSP,2013-10-03 05:16:00,
2013-10-03 01:21:00,56.8,50.0,29.73,NNW,337,0.0,0.0,78,0.00,,,0.00,WUHU21623XXSP,2013-10-03 05:21:00,
2013-10-03 01:26:00,56.8,50.0,29.73,NW,315,0.0,0.0,78,0.00,,,0.00,WUHU21623XXSP,2013-10-03 05:26:00,
2013-10-03 01:31:00,57.0,50.5,29.73,NW,315,0.0,0.0,79,0.00,,,0.00,WUHU21623XXSP,2013-10-03 05:31:00,
2013-10-03 01:36:00,57.2,50.7,29.74,NW,315,0.0,0.0,79,0.00,,,0.00,WUHU21623XXSP,2013-10-03 05:36:00,
2013-10-03 01:41:00,57.6,51.1,29.74,NW,315,0.0,0.0,79,0.00,,,0.00,WUHU21623XXSP,2013-10-03 05:41:00,
2013-10-03 01:46:00,57.9,51.4,29.74,NW,315,0.0,0.0,79,0.00,,,0.00,WUHU21623XXSP,2013-10-03 05:46:00,
2013-10-03 01:51:00,58.1,51.4,29.74,NW,315,0.0,0.0,79,0.00,,,0.00,WUHU21623XXSP,2013-10-03 05:51:00,
2013-10-03 01:56:00,58.3,51.8,29.74,NW,315,0.0,0.0,79,0.00,,,0.00,WUHU21623XXSP,2013-10-03 05:56:00,
2013-10-03 02:01:00,58.6,51.8,29.74,NW,315,0.0,0.0,78,0.00,,,0.00,WUHU21623XXSP,2013-10-03 06:01:00,
2013-10-03 02:06:00,58.6,51.8,29.74,NW,315,0.0,0.0,78,0.00,,,0.00,WUHU21623XXSP,2013-10-03 06:06:00,
2013-10-03 02:11:00,58.6,51.8,29.74,NW,315,0.0,0.0,78,0.00,,,0.00,WUHU21623XXSP,2013-10-03 06:11:00,
2013-10-03 02:16:00,58.6,51.8,29.74,NW,315,0.0,0.0,78,0.00,,,0.00,WUHU21623XXSP,2013-10-03 06:16:00,
2013-10-03 02:21:00,58.8,51.6,29.74,NW,315,0.0,0.0,77,0.00,,,0.00,WUHU21623XXSP,2013-10-03 06:21:00,
2013-10-03 02:26:00,58.8,51.6,29.74,NW,315,0.0,0.0,77,0.00,,,0.00,WUHU21623XXSP,2013-10-03 06:26:00,
2013-10-03 02:31:00,58.8,51.6,29.74,NW,315,0.0,0.0,77,0.00,,,0.00,WUHU21623XXSP,2013-10-03 06:31:00,
2013-10-03 02:36:00,58.6,51.4,29.74,NW,315,0.0,0.0,77,0.00,,,0.00,WUHU21623XXSP,2013-10-03 06:36:00,
2013-10-03 02:41:00,58.6,51.4,29.74,NW,315,0.0,0.0,77,0.00,,,0.00,WUHU21623XXSP,2013-10-03 06:41:00,
2013-10-03 02:46:00,58.5,51.3,29.74,NW,315,0.0,0.0,77,0.00,,,0.00,WUHU21623XXSP,2013-10-03 06:46:00,
2013-10-03 02:51:00,58.5,51.4,29.74,NW,315,0.0,0.0,77,0.00,,,0.00,WUHU21623XXSP,2013-10-03 06:51:00,
2013-10-03 02:56:00,58.3,51.1,29.74,NW,315,0.0,0.0,77,0.00,,,0.00,WUHU21623XXSP,2013-10-03 06:56:00,
2013-10-03 03:01:00,57.9,50.7,29.74,NW,315,0.0,0.0,77,0.00,,,0.00,WUHU21623XXSP,2013-10-03 07:01:00,
2013-10-03 03:06:00,57.4,49.8,29.75,NW,315,0.0,0.0,76,0.00,,,0.00,WUHU21623XXSP,2013-10-03 07:06:00,
2013-10-03 03:11:00,57.0,49.5,29.75,NW,315,0.0,0.0,76,0.00,,,0.00,WUHU21623XXSP,2013-10-03 07:11:00,
2013-10-03 03:16:00,56.8,49.3,29.76,NW,315,0.0,0.0,76,0.00,,,0.00,WUHU21623XXSP,2013-10-03 07:16:00,
2013-10-03 03:21:00,56.5,49.3,29.75,NW,315,0.0,0.0,77,0.00,,,0.00,WUHU21623XXSP,2013-10-03 07:21:00,
2013-10-03 03:26:00,56.5,49.3,29.75,NW,315,0.0,0.0,77,0.00,,,0.00,WUHU21623XXSP,2013-10-03 07:26:00,
2013-10-03 03:31:00,56.3,49.1,29.75,NW,315,0.0,0.0,77,0.00,,,0.00,WUHU21623XXSP,2013-10-03 07:31:00,
2013-10-03 03:36:00,55.9,48.8,29.76,NW,315,0.0,0.0,77,0.00,,,0.00,WUHU21623XXSP,2013-10-03 07:36:00,
2013-10-03 03:41:00,55.8,48.6,29.76,NW,315,0.0,0.0,77,0.00,,,0.00,WUHU21623XXSP,2013-10-03 07:41:00,
2013-10-03 03:46:00,55.6,48.4,29.76,NW,315,0.0,0.0,77,0.00,,,0.00,WUHU21623XXSP,2013-10-03 07:46:00,
2013-10-03 03:51:00,55.2,48.1,29.76,NW,315,0.0,0.0,78,0.00,,,0.00,WUHU21623XXSP,2013-10-03 07:51:00,
2013-10-03 03:56:00,55.2,48.4,29.76,NW,315,0.0,0.0,78,0.00,,,0.00,WUHU21623XXSP,2013-10-03 07:56:00,
2013-10-03 04:01:00,55.0,47.9,29.76,NW,315,0.0,0.0,77,0.00,,,0.00,WUHU21623XXSP,2013-10-03 08:01:00,
2013-10-03 04:06:00,54.7,47.6,29.76,NW,315,0.0,0.0,77,0.00,,,0.00,WUHU21623XXSP,2013-10-03 08:06:00,
2013-10-03 04:11:00,54.5,47.8,29.76,NW,315,0.0,0.0,78,0.00,,,0.00,WUHU21623XXSP,2013-10-03 08:11:00,
2013-10-03 04:16:00,54.3,47.6,29.76,NW,315,0.0,0.0,78,0.00,,,0.00,WUHU21623XXSP,2013-10-03 08:16:00,
2013-10-03 04:21:00,54.0,47.3,29.77,NW,315,0.0,0.0,78,0.00,,,0.00,WUHU21623XXSP,2013-10-03 08:21:00,
2013-10-03 04:26:00,53.8,47.1,29.76,NW,315,0.0,0.0,78,0.00,,,0.00,WUHU21623XXSP,2013-10-03 08:26:00,
2013-10-03 04:31:00,53.4,46.8,29.77,NW,315,0.0,0.0,78,0.00,,,0.00,WUHU21623XXSP,2013-10-03 08:31:00,
2013-10-03 04:36:00,53.2,46.6,29.77,NW,315,0.0,0.0,78,0.00,,,0.00,WUHU21623XXSP,2013-10-03 08:36:00,
2013-10-03 04:41:00,53.1,46.8,29.77,NW,315,0.0,0.0,79,0.00,,,0.00,WUHU21623XXSP,2013-10-03 08:41:00,
2013-10-03 04:46:00,53.2,46.9,29.77,NW,315,0.0,0.0,79,0.00,,,0.00,WUHU21623XXSP,2013-10-03 08:46:00,
2013-10-03 04:51:00,53.2,46.9,29.77,NW,315,0.0,0.0,79,0.00,,,0.00,WUHU21623XXSP,2013-10-03 08:51:00,
2013-10-03 04:56:00,53.1,46.8,29.77,NW,315,0.0,0.0,79,0.00,,,0.00,WUHU21623XXSP,2013-10-03 08:56:00,
2013-10-03 05:01:00,53.1,46.8,29.77,NW,315,0.0,0.0,79,0.00,,,0.00,WUHU21623XXSP,2013-10-03 09:01:00,
2013-10-03 05:06:00,52.9,46.6,29.77,NW,315,0.0,0.0,79,0.00,,,0.00,WUHU21623XXSP,2013-10-03 09:06:00,
2013-10-03 05:11:00,52.7,46.4,29.77,NW,315,0.0,0.0,79,0.00,,,0.00,WUHU21623XXSP,2013-10-03 09:11:00,
2013-10-03 05:16:00,52.5,46.2,29.77,NW,315,0.0,0.0,79,0.00,,,0.00,WUHU21623XXSP,2013-10-03 09:16:00,
2013-10-03 05:21:00,52.3,46.0,29.77,NW,315,0.0,0.0,79,0.00,,,0.00,WUHU21623XXSP,2013-10-03 09:21:00,
2013-10-03 05:26:00,52.2,45.9,29.77,NW,315,0.0,0.0,79,0.00,,,0.00,WUHU21623XXSP,2013-10-03 09:26:00,
2013-10-03 05:31:00,52.0,45.7,29.77,NW,315,0.0,0.0,79,0.00,,,0.00,WUHU21623XXSP,2013-10-03 09:31:00,
2013-10-03 05:36:00,52.0,45.7,29.77,NW,315,0.0,0.0,79,0.00,,,0.00,WUHU21623XXSP,2013-10-03 09:36:00,
2013-10-03 05:41:00,51.8,45.5,29.77,NW,315,0.0,0.0,79,0.00,,,0.00,WUHU21623XXSP,2013-10-03 09:41:00,
2013-10-03 05:46:00,51.6,45.3,29.77,NW,315,0.0,0.0,79,0.00,,,0.00,WUHU21623XXSP,2013-10-03 09:46:00,
2013-10-03 05:51:00,51.4,45.2,29.78,NW,315,0.0,0.0,79,0.00,,,0.00,WUHU21623XXSP,2013-10-03 09:51:00,
2013-10-03 05:56:00,51.4,45.5,29.78,NW,315,0.0,0.0,80,0.00,,,0.00,WUHU21623XXSP,2013-10-03 09:56:00,
2013-10-03 06:01:00,51.1,45.1,29.79,NW,315,0.0,0.0,80,0.00,,,0.00,WUHU21623XXSP,2013-10-03 10:01:00,
2013-10-03 06:06:00,50.7,45.0,29.79,NW,315,0.0,0.0,80,0.00,,,0.00,WUHU21623XXSP,2013-10-03 10:06:00,
2013-10-03 06:11:00,50.7,44.8,29.78,NW,315,0.0,0.0,80,0.00,,,0.00,WUHU21623XXSP,2013-10-03 10:11:00,
2013-10-03 06:16:00,50.5,44.6,29.79,NW,315,0.0,0.0,80,0.00,,,0.00,WUHU21623XXSP,2013-10-03 10:16:00,
2013-10-03 06:21:00,50.5,44.9,29.79,NW,315,0.0,0.0,81,0.00,,,0.00,WUHU21623XXSP,2013-10-03 10:21:00,
2013-10-03 06:26:00,50.5,44.9,29.79,NW,315,0.0,0.0,81,0.00,,,0.00,WUHU21623XXSP,2013-10-03 10:26:00,
2013-10-03 06:31:00,50.5,44.9,29.79,NW,315,0.0,0.0,81,0.00,,,0.00,WUHU21623XXSP,2013-10-03 10:31:00,
2013-10-03 06:36:00,50.2,44.5,29.79,NW,315,0.0,0.0,81,0.00,,,0.00,WUHU21623XXSP,2013-10-03 10:36:00,
2013-10-03 06:41:00,50.2,44.5,29.79,NW,315,0.0,0.0,81,0.00,,,0.00,WUHU21623XXSP,2013-10-03 10:41:00,
2013-10-03 06:46:00,49.8,44.2,29.79,NW,315,0.0,0.0,81,0.00,,,0.00,WUHU21623XXSP,2013-10-03 10:46:00,
2013-10-03 06:51:00,49.6,44.0,29.80,NW,315,0.0,0.0,81,0.00,,,0.00,WUHU21623XXSP,2013-10-03 10:51:00,
2013-10-03 06:56:00,49.3,43.6,29.80,NW,315,0.0,0.0,81,0.00,,,0.00,WUHU21623XXSP,2013-10-03 10:56:00,
2013-10-03 07:01:00,49.3,43.6,29.79,NW,315,0.0,0.0,81,0.00,,,0.00,WUHU21623XXSP,2013-10-03 11:01:00,
2013-10-03 07:06:00,49.3,43.6,29.80,NW,315,0.0,0.0,81,0.00,,,0.00,WUHU21623XXSP,2013-10-03 11:06:00,
2013-10-03 07:11:00,49.3,43.6,29.80,NW,315,0.0,0.0,81,0.00,,,0.00,WUHU21623XXSP,2013-10-03 11:11:00,
2013-10-03 07:16:00,49.3,43.6,29.80,NW,315,0.0,0.0,81,0.00,,,0.00,WUHU21623XXSP,2013-10-03 11:16:00,
2013-10-03 07:21:00,49.3,43.6,29.81,NW,315,0.0,0.0,81,0.00,,,0.00,WUHU21623XXSP,2013-10-03 11:21:00,
2013-10-03 07:26:00,49.6,44.0,29.81,NW,315,0.0,0.0,81,0.00,,,0.00,WUHU21623XXSP,2013-10-03 11:26:00,
2013-10-03 07:31:00,49.3,43.6,29.81,NW,315,0.0,0.0,81,0.00,,,0.00,WUHU21623XXSP,2013-10-03 11:31:00,
2013-10-03 07:36:00,49.6,44.0,29.82,NW,315,0.0,0.0,81,0.00,,,0.00,WUHU21623XXSP,2013-10-03 11:36:00,
2013-10-03 07:41:00,49.6,43.6,29.82,NW,315,0.0,0.0,81,0.00,,,0.00,WUHU21623XXSP,2013-10-03 11:41:00,
2013-10-03 07:46:00,49.6,44.0,29.82,NW,315,0.0,0.0,81,0.00,,,0.00,WUHU21623XXSP,2013-10-03 11:46:00,
2013-10-03 07:51:00,49.8,44.5,29.83,NW,315,0.0,0.0,82,0.00,,,0.00,WUHU21623XXSP,2013-10-03 11:51:00,
2013-10-03 07:56:00,49.8,44.3,29.82,NW,315,0.0,0.0,82,0.00,,,0.00,WUHU21623XXSP,2013-10-03 11:56:00,
2013-10-03 08:01:00,49.8,44.5,29.83,NW,315,0.0,0.0,82,0.00,,,0.00,WUHU21623XXSP,2013-10-03 12:01:00,
2013-10-03 08:06:00,50.4,44.9,29.83,NW,315,0.0,0.0,82,0.00,,,0.00,WUHU21623XXSP,2013-10-03 12:06:00,
2013-10-03 08:11:00,50.5,45.2,29.83,NW,315,0.0,0.0,82,0.00,,,0.00,WUHU21623XXSP,2013-10-03 12:11:00,
2013-10-03 08:16:00,50.7,45.4,29.83,NW,315,0.0,0.0,82,0.00,,,0.00,WUHU21623XXSP,2013-10-03 12:16:00,
2013-10-03 08:21:00,51.3,45.9,29.83,NW,315,0.0,0.0,82,0.00,,,0.00,WUHU21623XXSP,2013-10-03 12:21:00,
2013-10-03 08:26:00,51.6,46.6,29.83,NW,315,0.0,0.0,83,0.00,,,0.00,WUHU21623XXSP,2013-10-03 12:26:00,
2013-10-03 08:31:00,52.2,47.1,29.83,NW,315,0.0,0.0,83,0.00,,,0.00,WUHU21623XXSP,2013-10-03 12:31:00,
2013-10-03 08:36:00,52.9,47.9,29.84,NW,315,0.0,0.0,83,0.00,,,0.00,WUHU21623XXSP,2013-10-03 12:36:00,
2013-10-03 08:41:00,53.8,48.7,29.83,NW,315,0.0,0.0,83,0.00,,,0.00,WUHU21623XXSP,2013-10-03 12:41:00,
2013-10-03 08:46:00,54.3,49.2,29.84,NW,315,0.0,0.0,83,0.00,,,0.00,WUHU21623XXSP,2013-10-03 12:46:00,
2013-10-03 08:51:00,55.2,49.7,29.84,NW,315,0.0,0.0,83,0.00,,,0.00,WUHU21623XXSP,2013-10-03 12:51:00,
2013-10-03 08:56:00,55.6,50.4,29.84,NW,315,0.0,0.0,83,0.00,,,0.00,WUHU21623XXSP,2013-10-03 12:56:00,
2013-10-03 09:01:00,56.1,51.0,29.84,NW,315,0.0,0.0,83,0.00,,,0.00,WUHU21623XXSP,2013-10-03 13:01:00,
2013-10-03 09:06:00,57.0,51.9,29.84,NW,315,0.0,0.0,83,0.00,,,0.00,WUHU21623XXSP,2013-10-03 13:06:00,
2013-10-03 09:11:00,57.4,51.9,29.84,NW,315,0.0,0.0,82,0.00,,,0.00,WUHU21623XXSP,2013-10-03 13:11:00,
2013-10-03 09:16:00,57.9,52.6,29.84,NW,315,0.0,0.0,83,0.00,,,0.00,WUHU21623XXSP,2013-10-03 13:16:00,
2013-10-03 09:21:00,58.8,53.3,29.84,NW,315,0.0,0.0,82,0.00,,,0.00,WUHU21623XXSP,2013-10-03 13:21:00,
2013-10-03 09:26:00,59.5,53.7,29.84,NW,315,0.0,0.0,81,0.00,,,0.00,WUHU21623XXSP,2013-10-03 13:26:00,
2013-10-03 09:31:00,60.1,54.0,29.84,NW,315,0.0,0.0,80,0.00,,,0.00,WUHU21623XXSP,2013-10-03 13:31:00,
2013-10-03 09:36:00,61.0,54.5,29.84,NW,315,0.0,0.0,79,0.00,,,0.00,WUHU21623XXSP,2013-10-03 13:36:00,
2013-10-03 09:41:00,61.5,54.6,29.84,NW,315,0.0,0.0,78,0.00,,,0.00,WUHU21623XXSP,2013-10-03 13:41:00,
2013-10-03 09:46:00,62.2,54.9,29.84,WNW,292,0.0,0.0,77,0.00,,,0.00,WUHU21623XXSP,2013-10-03 13:46:00,
2013-10-03 09:51:00,63.3,55.2,29.84,WNW,292,0.0,0.0,75,0.00,,,0.00,WUHU21623XXSP,2013-10-03 13:51:00,
2013-10-03 09:56:00,64.0,55.2,29.84,WNW,292,0.0,0.0,73,0.00,,,0.00,WUHU21623XXSP,2013-10-03 13:56:00,
2013-10-03 10:01:00,64.8,55.2,29.84,West,270,0.0,0.0,72,0.00,,,0.00,WUHU21623XXSP,2013-10-03 14:01:00,
2013-10-03 10:06:00,66.0,55.1,29.84,WSW,247,0.0,0.0,68,0.00,,,0.00,WUHU21623XXSP,2013-10-03 14:06:00,
2013-10-03 10:11:00,66.7,55.8,29.84,WSW,247,0.0,0.0,68,0.00,,,0.00,WUHU21623XXSP,2013-10-03 14:11:00,
2013-10-03 10:16:00,67.5,56.1,29.84,WSW,247,0.0,0.0,67,0.00,,,0.00,WUHU21623XXSP,2013-10-03 14:16:00,
2013-10-03 10:21:00,68.7,56.4,29.84,WSW,247,0.0,0.0,65,0.00,,,0.00,WUHU21623XXSP,2013-10-03 14:21:00,
2013-10-03 10:26:00,69.4,56.4,29.84,WSW,247,0.0,0.0,63,0.00,,,0.00,WUHU21623XXSP,2013-10-03 14:26:00,
2013-10-03 10:31:00,70.0,56.8,29.84,WSW,247,0.0,0.0,63,0.00,,,0.00,WUHU21623XXSP,2013-10-03 14:31:00,
2013-10-03 10:36:00,70.9,56.4,29.84,WSW,247,0.0,0.0,60,0.00,,,0.00,WUHU21623XXSP,2013-10-03 14:36:00,
2013-10-03 10:41:00,71.2,56.2,29.83,SW,225,0.0,0.0,59,0.00,,,0.00,WUHU21623XXSP,2013-10-03 14:41:00,
2013-10-03 10:46:00,71.6,56.0,29.84,SW,225,0.0,0.0,58,0.00,,,0.00,WUHU21623XXSP,2013-10-03 14:46:00,
2013-10-03 10:51:00,72.3,56.2,29.83,SW,225,0.0,0.0,57,0.00,,,0.00,WUHU21623XXSP,2013-10-03 14:51:00,
2013-10-03 10:56:00,73.0,56.8,29.83,WSW,247,0.0,0.0,57,0.00,,,0.00,WUHU21623XXSP,2013-10-03 14:56:00,
2013-10-03 11:01:00,73.6,57.0,29.83,WSW,247,0.0,0.0,55,0.00,,,0.00,WUHU21623XXSP,2013-10-03 15:01:00,
2013-10-03 11:06:00,73.9,56.2,29.83,WSW,247,0.0,0.0,54,0.00,,,0.00,WUHU21623XXSP,2013-10-03 15:06:00,
2013-10-03 11:11:00,74.1,56.3,29.83,WSW,247,0.0,0.0,54,0.00,,,0.00,WUHU21623XXSP,2013-10-03 15:11:00,
2013-10-03 11:16:00,74.3,56.5,29.83,WSW,247,0.0,0.0,54,0.00,,,0.00,WUHU21623XXSP,2013-10-03 15:16:00,
2013-10-03 11:21:00,74.8,55.5,29.83,WSW,247,0.0,0.0,51,0.00,,,0.00,WUHU21623XXSP,2013-10-03 15:21:00,
2013-10-03 11:26:00,74.8,55.5,29.83,WSW,247,0.0,0.0,51,0.00,,,0.00,WUHU21623XXSP,2013-10-03 15:26:00,
2013-10-03 11:31:00,74.3,55.0,29.82,WSW,247,0.0,0.0,51,0.00,,,0.00,WUHU21623XXSP,2013-10-03 15:31:00,
2013-10-03 11:36:00,74.3,55.0,29.82,WSW,247,0.0,0.0,51,0.00,,,0.00,WUHU21623XXSP,2013-10-03 15:36:00,
2013-10-03 11:41:00,74.1,54.8,29.82,WSW,247,0.0,0.0,51,0.00,,,0.00,WUHU21623XXSP,2013-10-03 15:41:00,
2013-10-03 11:46:00,74.5,54.7,29.82,WSW,247,0.0,0.0,50,0.00,,,0.00,WUHU21623XXSP,2013-10-03 15:46:00,
2013-10-03 11:51:00,74.7,54.9,29.82,WSW,247,0.0,0.0,50,0.00,,,0.00,WUHU21623XXSP,2013-10-03 15:51:00,
2013-10-03 11:56:00,74.8,54.4,29.82,SSE,157,0.0,0.0,49,0.00,,,0.00,WUHU21623XXSP,2013-10-03 15:56:00,
2013-10-03 12:01:00,75.0,55.2,29.82,SSE,157,0.0,0.0,50,0.00,,,0.00,WUHU21623XXSP,2013-10-03 16:01:00,
2013-10-03 12:06:00,74.8,53.8,29.81,SSE,157,0.0,0.0,48,0.00,,,0.00,WUHU21623XXSP,2013-10-03 16:06:00,
2013-10-03 12:11:00,75.0,54.6,29.81,SSE,157,0.0,0.0,49,0.00,,,0.00,WUHU21623XXSP,2013-10-03 16:11:00,
2013-10-03 12:16:00,75.0,54.0,29.81,SSE,157,0.0,0.0,48,0.00,,,0.00,WUHU21623XXSP,2013-10-03 16:16:00,
2013-10-03 12:21:00,74.8,53.2,29.81,SSE,157,0.0,0.0,47,0.00,,,0.00,WUHU21623XXSP,2013-10-03 16:21:00,
2013-10-03 12:26:00,74.7,52.6,29.81,SSW,202,0.0,0.0,46,0.00,,,0.00,WUHU21623XXSP,2013-10-03 16:26:00,
2013-10-03 12:31:00,74.5,52.9,29.81,WSW,247,0.0,0.0,47,0.00,,,0.00,WUHU21623XXSP,2013-10-03 16:31:00,
2013-10-03 12:36:00,74.8,53.2,29.80,WSW,247,0.0,0.0,47,0.00,,,0.00,WUHU21623XXSP,2013-10-03 16:36:00,
2013-10-03 12:41:00,74.7,52.4,29.80,WSW,247,0.0,0.0,46,0.00,,,0.00,WUHU21623XXSP,2013-10-03 16:41:00,
2013-10-03 12:46:00,74.7,53.2,29.80,WSW,247,0.0,0.0,47,0.00,,,0.00,WUHU21623XXSP,2013-10-03 16:46:00,
2013-10-03 12:51:00,74.7,53.6,29.80,WSW,247,0.0,0.0,48,0.00,,,0.00,WUHU21623XXSP,2013-10-03 16:51:00,
2013-10-03 12:56:00,74.8,53.2,29.80,WSW,247,0.0,0.0,47,0.00,,,0.00,WUHU21623XXSP,2013-10-03 16:56:00,
2013-10-03 13:01:00,74.8,53.8,29.80,WSW,247,0.0,0.0,48,0.00,,,0.00,WUHU21623XXSP,2013-10-03 17:01:00,
2013-10-03 13:06:00,74.8,53.8,29.80,WSW,247,0.0,0.0,48,0.00,,,0.00,WUHU21623XXSP,2013-10-03 17:06:00,
2013-10-03 13:11:00,75.0,53.4,29.80,WSW,247,0.0,0.0,47,0.00,,,0.00,WUHU21623XXSP,2013-10-03 17:11:00,
2013-10-03 13:16:00,75.0,53.4,29.80,WSW,247,0.0,0.0,47,0.00,,,0.00,WUHU21623XXSP,2013-10-03 17:16:00,
2013-10-03 13:21:00,75.0,54.0,29.79,WSW,247,0.0,0.0,48,0.00,,,0.00,WUHU21623XXSP,2013-10-03 17:21:00,
2013-10-03 13:26:00,75.2,54.0,29.79,WSW,247,0.0,0.0,49,0.00,,,0.00,WUHU21623XXSP,2013-10-03 17:26:00,
2013-10-03 13:31:00,75.4,54.3,29.79,WSW,247,0.0,0.0,49,0.00,,,0.00,WUHU21623XXSP,2013-10-03 17:31:00,
2013-10-03 13:36:00,75.4,53.7,29.79,WSW,247,0.0,0.0,47,0.00,,,0.00,WUHU21623XXSP,2013-10-03 17:36:00,
2013-10-03 13:41:00,75.4,52.5,29.78,WNW,292,0.0,0.0,45,0.00,,,0.00,WUHU21623XXSP,2013-10-03 17:41:00,
2013-10-03 13:46:00,75.4,51.3,29.78,WNW,292,0.0,0.0,43,0.00,,,0.00,WUHU21623XXSP,2013-10-03 17:46:00,
2013-10-03 13:51:00,75.4,52.5,29.78,NW,315,0.0,0.0,45,0.00,,,0.00,WUHU21623XXSP,2013-10-03 17:51:00,
2013-10-03 13:56:00,75.6,52.7,29.77,WNW,292,0.0,0.0,45,0.00,,,0.00,WUHU21623XXSP,2013-10-03 17:56:00,
2013-10-03 14:01:00,75.6,52.1,29.77,WNW,292,0.0,0.0,44,0.00,,,0.00,WUHU21623XXSP,2013-10-03 18:01:00,
2013-10-03 14:06:00,75.6,52.7,29.77,NW,315,0.0,0.0,45,0.00,,,0.00,WUHU21623XXSP,2013-10-03 18:06:00,
2013-10-03 14:11:00,75.7,52.2,29.77,WNW,292,0.0,0.0,44,0.00,,,0.00,WUHU21623XXSP,2013-10-03 18:11:00,
2013-10-03 14:16:00,75.6,52.1,29.78,WNW,292,0.0,0.0,44,0.00,,,0.00,WUHU21623XXSP,2013-10-03 18:16:00,
2013-10-03 14:21:00,75.0,51.5,29.78,NW,315,0.0,0.0,44,0.00,,,0.00,WUHU21623XXSP,2013-10-03 18:21:00,
2013-10-03 14:26:00,75.0,52.2,29.77,NW,315,0.0,0.0,45,0.00,,,0.00,WUHU21623XXSP,2013-10-03 18:26:00,
2013-10-03 14:31:00,75.0,52.2,29.77,WNW,292,0.0,0.0,45,0.00,,,0.00,WUHU21623XXSP,2013-10-03 18:31:00,
2013-10-03 14:36:00,74.5,51.0,29.77,WNW,292,0.0,0.0,44,0.00,,,0.00,WUHU21623XXSP,2013-10-03 18:36:00,
2013-10-03 14:41:00,74.5,51.7,29.77,WNW,292,0.0,0.0,45,0.00,,,0.00,WUHU21623XXSP,2013-10-03 18:41:00,
2013-10-03 14:46:00,74.5,52.3,29.77,WNW,292,0.0,0.0,46,0.00,,,0.00,WUHU21623XXSP,2013-10-03 18:46:00,
2013-10-03 14:51:00,74.5,51.7,29.77,WNW,292,0.0,0.0,45,0.00,,,0.00,WUHU21623XXSP,2013-10-03 18:51:00,
2013-10-03 14:56:00,74.3,52.1,29.77,WNW,292,0.0,0.0,46,0.00,,,0.00,WUHU21623XXSP,2013-10-03 18:56:00,
2013-10-03 15:01:00,74.5,52.3,29.77,West,270,0.0,0.0,46,0.00,,,0.00,WUHU21623XXSP,2013-10-03 19:01:00,
2013-10-03 15:06:00,74.3,52.1,29.77,WNW,292,0.0,0.0,46,0.00,,,0.00,WUHU21623XXSP,2013-10-03 19:06:00,
2013-10-03 15:11:00,74.3,51.5,29.77,WNW,292,0.0,0.0,45,0.00,,,0.00,WUHU21623XXSP,2013-10-03 19:11:00,
2013-10-03 15:16:00,74.3,52.7,29.77,WNW,292,0.0,0.0,47,0.00,,,0.00,WUHU21623XXSP,2013-10-03 19:16:00,
2013-10-03 15:21:00,74.3,52.7,29.77,WNW,292,0.0,0.0,47,0.00,,,0.00,WUHU21623XXSP,2013-10-03 19:21:00,
2013-10-03 15:26:00,74.3,52.1,29.77,West,270,0.0,0.0,46,0.00,,,0.00,WUHU21623XXSP,2013-10-03 19:26:00,
2013-10-03 15:31:00,74.1,51.3,29.77,West,270,0.0,0.0,45,0.00,,,0.00,WUHU21623XXSP,2013-10-03 19:31:00,
2013-10-03 15:36:00,73.9,51.1,29.76,WNW,292,0.0,0.0,45,0.00,,,0.00,WUHU21623XXSP,2013-10-03 19:36:00,
2013-10-03 15:41:00,73.8,49.8,29.76,WNW,292,0.0,0.0,43,0.00,,,0.00,WUHU21623XXSP,2013-10-03 19:41:00,
2013-10-03 15:46:00,73.6,49.6,29.76,WNW,292,0.0,0.0,43,0.00,,,0.00,WUHU21623XXSP,2013-10-03 19:46:00,
2013-10-03 15:51:00,73.6,49.6,29.76,WNW,292,0.0,0.0,43,0.00,,,0.00,WUHU21623XXSP,2013-10-03 19:51:00,
2013-10-03 15:56:00,73.6,49.6,29.76,WNW,292,0.0,0.0,43,0.00,,,0.00,WUHU21623XXSP,2013-10-03 19:56:00,
2013-10-03 16:01:00,73.4,49.4,29.76,WNW,292,0.0,0.0,43,0.00,,,0.00,WUHU21623XXSP,2013-10-03 20:01:00,
2013-10-03 16:06:00,73.4,50.0,29.76,WNW,292,0.0,0.0,44,0.00,,,0.00,WUHU21623XXSP,2013-10-03 20:06:00,
2013-10-03 16:11:00,73.2,50.5,29.76,WNW,292,0.0,0.0,45,0.00,,,0.00,WUHU21623XXSP,2013-10-03 20:11:00,
2013-10-03 16:16:00,73.0,50.9,29.76,WNW,292,0.0,0.0,46,0.00,,,0.00,WUHU21623XXSP,2013-10-03 20:16:00,
2013-10-03 16:21:00,72.7,50.6,29.76,NW,315,0.0,0.0,46,0.00,,,0.00,WUHU21623XXSP,2013-10-03 20:21:00,
2013-10-03 16:26:00,72.3,50.3,29.76,WNW,292,0.0,0.0,46,0.00,,,0.00,WUHU21623XXSP,2013-10-03 20:26:00,
2013-10-03 16:31:00,72.1,50.3,29.76,WNW,292,0.0,0.0,47,0.00,,,0.00,WUHU21623XXSP,2013-10-03 20:31:00,
2013-10-03 16:36:00,72.1,50.7,29.76,WNW,292,0.0,0.0,47,0.00,,,0.00,WUHU21623XXSP,2013-10-03 20:36:00,
2013-10-03 16:41:00,72.0,50.5,29.76,WNW,292,0.0,0.0,47,0.00,,,0.00,WUHU21623XXSP,2013-10-03 20:41:00,
2013-10-03 16:46:00,72.0,51.1,29.76,WNW,292,0.0,0.0,48,0.00,,,0.00,WUHU21623XXSP,2013-10-03 20:46:00,
2013-10-03 16:51:00,71.8,51.0,29.76,WNW,292,0.0,0.0,48,0.00,,,0.00,WUHU21623XXSP,2013-10-03 20:51:00,
2013-10-03 16:56:00,71.6,50.2,29.76,WNW,292,0.0,0.0,47,0.00,,,0.00,WUHU21623XXSP,2013-10-03 20:56:00,
2013-10-03 17:01:00,71.4,50.6,29.76,WNW,292,0.0,0.0,48,0.00,,,0.00,WUHU21623XXSP,2013-10-03 21:01:00,
2013-10-03 17:06:00,71.2,51.1,29.76,WNW,292,0.0,0.0,49,0.00,,,0.00,WUHU21623XXSP,2013-10-03 21:06:00,
2013-10-03 17:11:00,71.2,51.7,29.76,WNW,292,0.0,0.0,50,0.00,,,0.00,WUHU21623XXSP,2013-10-03 21:11:00,
2013-10-03 17:16:00,70.9,51.5,29.76,WNW,292,0.0,0.0,50,0.00,,,0.00,WUHU21623XXSP,2013-10-03 21:16:00,
2013-10-03 17:21:00,70.7,51.7,29.76,WNW,292,0.0,0.0,51,0.00,,,0.00,WUHU21623XXSP,2013-10-03 21:21:00,
2013-10-03 17:26:00,70.3,51.4,29.76,WNW,292,0.0,0.0,51,0.00,,,0.00,WUHU21623XXSP,2013-10-03 21:26:00,
2013-10-03 17:31:00,70.2,51.7,29.76,WNW,292,0.0,0.0,52,0.00,,,0.00,WUHU21623XXSP,2013-10-03 21:31:00,
2013-10-03 17:36:00,69.6,51.7,29.76,WNW,292,0.0,0.0,53,0.00,,,0.00,WUHU21623XXSP,2013-10-03 21:36:00,
2013-10-03 17:41:00,69.4,52.0,29.76,WNW,292,0.0,0.0,54,0.00,,,0.00,WUHU21623XXSP,2013-10-03 21:41:00,
2013-10-03 17:46:00,68.7,51.4,29.76,WNW,292,0.0,0.0,54,0.00,,,0.00,WUHU21623XXSP,2013-10-03 21:46:00,
2013-10-03 17:51:00,68.4,51.7,29.76,WNW,292,0.0,0.0,56,0.00,,,0.00,WUHU21623XXSP,2013-10-03 21:51:00,
2013-10-03 17:56:00,68.2,52.3,29.77,WNW,292,0.0,0.0,57,0.00,,,0.00,WUHU21623XXSP,2013-10-03 21:56:00,
2013-10-03 18:01:00,67.8,52.0,29.77,WNW,292,0.0,0.0,57,0.00,,,0.00,WUHU21623XXSP,2013-10-03 22:01:00,
2013-10-03 18:06:00,66.9,51.7,29.77,WNW,292,0.0,0.0,58,0.00,,,0.00,WUHU21623XXSP,2013-10-03 22:06:00,
2013-10-03 18:11:00,66.4,52.0,29.77,WNW,292,0.0,0.0,59,0.00,,,0.00,WUHU21623XXSP,2013-10-03 22:11:00,
2013-10-03 18:16:00,66.0,51.8,29.78,WNW,292,0.0,0.0,60,0.00,,,0.00,WUHU21623XXSP,2013-10-03 22:16:00,
2013-10-03 18:21:00,65.5,51.3,29.78,WNW,292,0.0,0.0,60,0.00,,,0.00,WUHU21623XXSP,2013-10-03 22:21:00,
2013-10-03 18:26:00,65.1,51.3,29.78,WNW,292,0.0,0.0,61,0.00,,,0.00,WUHU21623XXSP,2013-10-03 22:26:00,
2013-10-03 18:31:00,64.6,50.8,29.78,WNW,292,0.0,0.0,61,0.00,,,0.00,WUHU21623XXSP,2013-10-03 22:31:00,
2013-10-03 18:36:00,64.0,50.7,29.78,WNW,292,0.0,0.0,62,0.00,,,0.00,WUHU21623XXSP,2013-10-03 22:36:00,
2013-10-03 18:41:00,63.7,50.4,29.78,WNW,292,0.0,0.0,63,0.00,,,0.00,WUHU21623XXSP,2013-10-03 22:41:00,
2013-10-03 18:46:00,63.1,50.3,29.78,WNW,292,0.0,0.0,63,0.00,,,0.00,WUHU21623XXSP,2013-10-03 22:46:00,
2013-10-03 18:51:00,62.8,50.0,29.78,WNW,292,0.0,0.0,63,0.00,,,0.00,WUHU21623XXSP,2013-10-03 22:51:00,
2013-10-03 18:56:00,62.4,49.6,29.78,WNW,292,0.0,0.0,63,0.00,,,0.00,WUHU21623XXSP,2013-10-03 22:56:00,
2013-10-03 19:01:00,62.2,49.9,29.78,WNW,292,0.0,0.0,64,0.00,,,0.00,WUHU21623XXSP,2013-10-03 23:01:00,
2013-10-03 19:06:00,61.5,49.7,29.78,WNW,292,0.0,0.0,65,0.00,,,0.00,WUHU21623XXSP,2013-10-03 23:06:00,
2013-10-03 19:11:00,61.2,49.7,29.78,WNW,292,0.0,0.0,66,0.00,,,0.00,WUHU21623XXSP,2013-10-03 23:11:00,
2013-10-03 19:16:00,60.8,49.4,29.79,WNW,292,0.0,0.0,66,0.00,,,0.00,WUHU21623XXSP,2013-10-03 23:16:00,
2013-10-03 19:21:00,60.4,49.1,29.79,WNW,292,0.0,0.0,66,0.00,,,0.00,WUHU21623XXSP,2013-10-03 23:21:00,
2013-10-03 19:26:00,60.1,48.9,29.79,WNW,292,0.0,0.0,66,0.00,,,0.00,WUHU21623XXSP,2013-10-03 23:26:00,
2013-10-03 19:31:00,59.7,48.8,29.79,WNW,292,0.0,0.0,67,0.00,,,0.00,WUHU21623XXSP,2013-10-03 23:31:00,
2013-10-03 19:36:00,59.5,49.0,29.79,WNW,292,0.0,0.0,68,0.00,,,0.00,WUHU21623XXSP,2013-10-03 23:36:00,
2013-10-03 19:41:00,59.2,48.6,29.79,WNW,292,0.0,0.0,68,0.00,,,0.00,WUHU21623XXSP,2013-10-03 23:41:00,
2013-10-03 19:46:00,58.8,48.7,29.79,WNW,292,0.0,0.0,69,0.00,,,0.00,WUHU21623XXSP,2013-10-03 23:46:00,
2013-10-03 19:51:00,58.8,48.7,29.79,WNW,292,0.0,0.0,69,0.00,,,0.00,WUHU21623XXSP,2013-10-03 23:51:00,
2013-10-03 19:56:00,58.6,48.5,29.79,WNW,292,0.0,0.0,69,0.00,,,0.00,WUHU21623XXSP,2013-10-03 23:56:00,
2013-10-03 20:01:00,58.3,48.1,29.79,WNW,292,0.0,0.0,69,0.00,,,0.00,WUHU21623XXSP,2013-10-04 00:01:00,
2013-10-03 20:06:00,57.9,47.8,29.79,WNW,292,0.0,0.0,69,0.00,,,0.00,WUHU21623XXSP,2013-10-04 00:06:00,
2013-10-03 20:11:00,57.7,47.6,29.79,WNW,292,0.0,0.0,69,0.00,,,0.00,WUHU21623XXSP,2013-10-04 00:11:00,
2013-10-03 20:16:00,57.6,47.8,29.80,WNW,292,0.0,0.0,70,0.00,,,0.00,WUHU21623XXSP,2013-10-04 00:16:00,
2013-10-03 20:21:00,57.4,48.0,29.80,WNW,292,0.0,0.0,71,0.00,,,0.00,WUHU21623XXSP,2013-10-04 00:21:00,
2013-10-03 20:26:00,57.4,48.0,29.80,WNW,292,0.0,0.0,71,0.00,,,0.00,WUHU21623XXSP,2013-10-04 00:26:00,
2013-10-03 20:31:00,57.0,47.7,29.79,WNW,292,0.0,0.0,71,0.00,,,0.00,WUHU21623XXSP,2013-10-04 00:31:00,
2013-10-03 20:36:00,57.0,47.7,29.80,WNW,292,0.0,0.0,71,0.00,,,0.00,WUHU21623XXSP,2013-10-04 00:36:00,
2013-10-03 20:41:00,57.0,47.7,29.80,WNW,292,0.0,0.0,71,0.00,,,0.00,WUHU21623XXSP,2013-10-04 00:41:00,
2013-10-03 20:46:00,56.8,47.5,29.80,WNW,292,0.0,0.0,71,0.00,,,0.00,WUHU21623XXSP,2013-10-04 00:46:00,
2013-10-03 20:51:00,56.5,47.5,29.80,WNW,292,0.0,0.0,72,0.00,,,0.00,WUHU21623XXSP,2013-10-04 00:51:00,
2013-10-03 20:56:00,56.5,47.5,29.80,WNW,292,0.0,0.0,72,0.00,,,0.00,WUHU21623XXSP,2013-10-04 00:56:00,
2013-10-03 21:01:00,56.5,47.5,29.80,WNW,292,0.0,0.0,72,0.00,,,0.00,WUHU21623XXSP,2013-10-04 01:01:00,
2013-10-03 21:06:00,56.3,47.4,29.80,WNW,292,0.0,0.0,72,0.00,,,0.00,WUHU21623XXSP,2013-10-04 01:06:00,
2013-10-03 21:11:00,56.3,47.7,29.80,WNW,292,0.0,0.0,73,0.00,,,0.00,WUHU21623XXSP,2013-10-04 01:11:00,
2013-10-03 21:16:00,56.1,47.6,29.80,WNW,292,0.0,0.0,73,0.00,,,0.00,WUHU21623XXSP,2013-10-04 01:16:00,
2013-10-03 21:21:00,55.9,47.4,29.80,WNW,292,0.0,0.0,73,0.00,,,0.00,WUHU21623XXSP,2013-10-04 01:21:00,
2013-10-03 21:26:00,55.9,47.4,29.80,WNW,292,0.0,0.0,73,0.00,,,0.00,WUHU21623XXSP,2013-10-04 01:26:00,
2013-10-03 21:31:00,55.9,47.4,29.80,WNW,292,0.0,0.0,73,0.00,,,0.00,WUHU21623XXSP,2013-10-04 01:31:00,
2013-10-03 21:36:00,55.8,47.2,29.80,WNW,292,0.0,0.0,73,0.00,,,0.00,WUHU21623XXSP,2013-10-04 01:36:00,
2013-10-03 21:41:00,55.6,47.0,29.80,WNW,292,0.0,0.0,73,0.00,,,0.00,WUHU21623XXSP,2013-10-04 01:41:00,
2013-10-03 21:46:00,55.6,47.4,29.81,WNW,292,0.0,0.0,74,0.00,,,0.00,WUHU21623XXSP,2013-10-04 01:46:00,
2013-10-03 21:51:00,55.4,47.2,29.81,WNW,292,0.0,0.0,74,0.00,,,0.00,WUHU21623XXSP,2013-10-04 01:51:00,
2013-10-03 21:56:00,55.2,47.0,29.81,WNW,292,0.0,0.0,74,0.00,,,0.00,WUHU21623XXSP,2013-10-04 01:56:00,
2013-10-03 22:01:00,55.2,47.4,29.81,WNW,292,0.0,0.0,75,0.00,,,0.00,WUHU21623XXSP,2013-10-04 02:01:00,
2013-10-03 22:06:00,55.2,47.4,29.81,WNW,292,0.0,0.0,75,0.00,,,0.00,WUHU21623XXSP,2013-10-04 02:06:00,
2013-10-03 22:11:00,55.2,47.4,29.81,WNW,292,0.0,0.0,75,0.00,,,0.00,WUHU21623XXSP,2013-10-04 02:11:00,
2013-10-03 22:16:00,55.0,47.2,29.82,WNW,292,0.0,0.0,75,0.00,,,0.00,WUHU21623XXSP,2013-10-04 02:16:00,
2013-10-03 22:21:00,54.9,47.0,29.82,WNW,292,0.0,0.0,75,0.00,,,0.00,WUHU21623XXSP,2013-10-04 02:21:00,
2013-10-03 22:26:00,54.7,46.9,29.82,WNW,292,0.0,0.0,75,0.00,,,0.00,WUHU21623XXSP,2013-10-04 02:26:00,
2013-10-03 22:31:00,54.5,46.7,29.82,WNW,292,0.0,0.0,75,0.00,,,0.00,WUHU21623XXSP,2013-10-04 02:31:00,
2013-10-03 22:36:00,54.3,46.5,29.82,WNW,292,0.0,0.0,75,0.00,,,0.00,WUHU21623XXSP,2013-10-04 02:36:00,
2013-10-03 22:41:00,54.3,46.9,29.82,WNW,292,0.0,0.0,76,0.00,,,0.00,WUHU21623XXSP,2013-10-04 02:41:00,
2013-10-03 22:46:00,54.3,46.9,29.82,WNW,292,0.0,0.0,76,0.00,,,0.00,WUHU21623XXSP,2013-10-04 02:46:00,
2013-10-03 22:51:00,54.1,46.9,29.82,WNW,292,0.0,0.0,76,0.00,,,0.00,WUHU21623XXSP,2013-10-04 02:51:00,
2013-10-03 22:56:00,54.0,46.5,29.82,WNW,292,0.0,0.0,76,0.00,,,0.00,WUHU21623XXSP,2013-10-04 02:56:00,
2013-10-03 23:01:00,53.8,46.4,29.81,WNW,292,0.0,0.0,76,0.00,,,0.00,WUHU21623XXSP,2013-10-04 03:01:00,
2013-10-03 23:06:00,53.8,46.4,29.82,WNW,292,0.0,0.0,76,0.00,,,0.00,WUHU21623XXSP,2013-10-04 03:06:00,
2013-10-03 23:11:00,53.4,46.0,29.82,WNW,292,0.0,0.0,76,0.00,,,0.00,WUHU21623XXSP,2013-10-04 03:11:00,
2013-10-03 23:16:00,53.4,46.0,29.81,WNW,292,0.0,0.0,76,0.00,,,0.00,WUHU21623XXSP,2013-10-04 03:16:00,
2013-10-03 23:21:00,53.4,46.0,29.81,WNW,292,0.0,0.0,76,0.00,,,0.00,WUHU21623XXSP,2013-10-04 03:21:00,
2013-10-03 23:26:00,53.2,45.9,29.81,WNW,292,0.0,0.0,76,0.00,,,0.00,WUHU21623XXSP,2013-10-04 03:26:00,
2013-10-03 23:31:00,53.2,45.9,29.81,WNW,292,0.0,0.0,76,0.00,,,0.00,WUHU21623XXSP,2013-10-04 03:31:00,
2013-10-03 23:36:00,53.2,45.9,29.81,WNW,292,0.0,0.0,76,0.00,,,0.00,WUHU21623XXSP,2013-10-04 03:36:00,
2013-10-03 23:41:00,53.2,45.9,29.81,WNW,292,0.0,0.0,76,0.00,,,0.00,WUHU21623XXSP,2013-10-04 03:41:00,
2013-10-03 23:46:00,53.2,46.2,29.81,WNW,292,0.0,0.0,77,0.00,,,0.00,WUHU21623XXSP,2013-10-04 03:46:00,
2013-10-03 23:51:00,53.2,46.2,29.81,WNW,292,0.0,0.0,77,0.00,,,0.00,WUHU21623XXSP,2013-10-04 03:51:00,
2013-10-03 23:56:00,53.2,46.2,29.81,WNW,292,0.0,0.0,77,0.00,,,0.00,WUHU21623XXSP,2013-10-04 03:56:00,
2013-10-03 23:59:00,53.2,46.2,29.81,WNW,292,0.0,0.0,77,0.00,,,0.00,WUHU21623XXSP,2013-10-04 03:59:00,